Location: Unspecified
(50.7693°N, 0.0000°E)
Time: 10:18:27
(UTC+00:00)

Transit 4A - Pass Details

Date: 28 June 2019
Orbit: 862 x 982 km, 66.8° (Epoch: 16 July)

Event Time Altitude Azimuth Distance (km) Brightness Sun altitude
Rises 17:09:06 0° 312° (NW) 3,684 11.8 26.2°
Reaches altitude 10° 17:12:50 10° 291° (WNW) 2,716 11.9 25.7°
Maximum altitude 17:16:15 15° 258° (WSW) 2,334 11.7 25.1°
Drops below altitude 10° 17:19:38 10° 225° (SW) 2,669 10.9 24.6°
Sets 17:23:16 0° 204° (SSW) 3,583 11.2 24.0°
